When you browse on this site, cookies collect data to enhance your experience and personalize the content and advertising you see.
Visit our Privacy Policy to learn more. By continuing to use the site, you agree to this use of cookies and data.
  • In Hungary
  • List of Countries
  • For 7 days
  • Water Temperature
  • Satellite Maps
  • Weather Map
  • News
  • Weather Widgets
  • user-avatar
    Login

    Hourly Weather Pryvillya

    Today, 20 July, Saturday

    Time Temperature Precipitation Wind Pressure Humidity
    00:00 +20°C° 0 mm 2 mps 749 mmHg 57%
    01:00 +20°C° 0 mm 2 mps 749 mmHg 61%
    02:00 +19°C° 0 mm 2 mps 749 mmHg 65%
    03:00 +20°C° 0 mm 1 mps 749 mmHg 68%
    04:00 +20°C° 0 mm 1 mps 749 mmHg 69%
    05:00 +20°C° 0 mm 1 mps 750 mmHg 70%
    06:00 +20°C° 0 mm 1 mps 750 mmHg 71%
    07:00 +22°C° 0 mm 1 mps 750 mmHg 65%
    08:00 +24°C° 0 mm 1 mps 751 mmHg 59%
    09:00 +25°C° 0 mm 2 mps 751 mmHg 53%
    10:00 +27°C° 0 mm 2 mps 751 mmHg 48%
    11:00 +28°C° 0 mm 1 mps 751 mmHg 43%
    12:00 +29°C° 0 mm 1 mps 751 mmHg 38%
    13:00 +29°C° 0 mm 1 mps 751 mmHg 35%
    14:00 +30°C° 0 mm 1 mps 751 mmHg 33%
    15:00 +30°C° 0 mm 1 mps 750 mmHg 31%
    16:00 +30°C° 0 mm 1 mps 750 mmHg 32%
    17:00 +30°C° 0 mm 2 mps 750 mmHg 33%
    18:00 +30°C° 0 mm 2 mps 750 mmHg 34%
    19:00 +28°C° 0 mm 2 mps 750 mmHg 38%
    20:00 +26°C° 0 mm 2 mps 750 mmHg 42%
    21:00 +24°C° 0 mm 2 mps 750 mmHg 46%
    22:00 +24°C° 0 mm 2 mps 751 mmHg 47%
    23:00 +23°C° 0 mm 2 mps 751 mmHg 48%

    Tomorrow, 21 July, Sunday

    Time Temperature Precipitation Wind Pressure Humidity
    00:00 +23°C° 0 mm 1 mps 751 mmHg 49%
    01:00 +21°C° 0 mm 2 mps 751 mmHg 51%
    02:00 +21°C° 0 mm 2 mps 751 mmHg 53%
    03:00 +20°C° 0 mm 2 mps 750 mmHg 56%
    04:00 +20°C° 0 mm 2 mps 750 mmHg 58%
    05:00 +20°C° 0 mm 2 mps 750 mmHg 60%
    06:00 +20°C° 0 mm 2 mps 750 mmHg 62%
    07:00 +23°C° 0 mm 2 mps 750 mmHg 56%
    08:00 +25°C° 0 mm 2 mps 750 mmHg 50%
    09:00 +28°C° 0 mm 2 mps 750 mmHg 44%
    10:00 +29°C° 0 mm 2 mps 750 mmHg 40%
    11:00 +30°C° 0 mm 2 mps 750 mmHg 36%
    12:00 +31°C° 0 mm 1 mps 750 mmHg 31%
    13:00 +31°C° 0 mm 1 mps 750 mmHg 32%
    14:00 +31°C° 0 mm 1 mps 750 mmHg 32%
    15:00 +30°C° 0 mm 1 mps 750 mmHg 32%
    16:00 +30°C° 0 mm 2 mps 750 mmHg 36%
    17:00 +29°C° 0 mm 2 mps 750 mmHg 40%
    18:00 +28°C° 0 mm 2 mps 750 mmHg 43%
    19:00 +27°C° 0 mm 2 mps 750 mmHg 48%
    20:00 +26°C° 0 mm 2 mps 750 mmHg 52%
    21:00 +24°C° 0 mm 1 mps 750 mmHg 57%
    22:00 +23°C° 0 mm 1 mps 750 mmHg 61%
    23:00 +23°C° 0 mm 1 mps 750 mmHg 64%

    Day after tomorrow, 22 July, Monday

    Time Temperature Precipitation Wind Pressure Humidity
    00:00 +22°C° 0 mm 1 mps 750 mmHg 68%
    01:00 +21°C° 0 mm 1 mps 749 mmHg 69%
    02:00 +21°C° 0 mm 1 mps 749 mmHg 71%
    03:00 +19°C° 0 mm 0 mps 749 mmHg 72%
    04:00 +19°C° 0 mm 0 mps 749 mmHg 72%
    05:00 +19°C° 0 mm 0 mps 749 mmHg 72%
    06:00 +19°C° 0 mm 0 mps 749 mmHg 72%
    07:00 +23°C° 0 mm 1 mps 749 mmHg 65%
    08:00 +25°C° 0 mm 1 mps 749 mmHg 58%
    09:00 +27°C° 0 mm 1 mps 749 mmHg 51%
    10:00 +28°C° 0 mm 1 mps 749 mmHg 46%
    11:00 +30°C° 0 mm 1 mps 749 mmHg 42%
    12:00 +31°C° 0 mm 1 mps 749 mmHg 37%
    13:00 +31°C° 0 mm 1 mps 749 mmHg 37%
    14:00 +31°C° 0 mm 1 mps 748 mmHg 37%
    15:00 +31°C° 0 mm 1 mps 748 mmHg 36%
    16:00 +31°C° 0 mm 1 mps 748 mmHg 38%
    17:00 +31°C° 0 mm 1 mps 748 mmHg 40%
    18:00 +30°C° 0 mm 1 mps 747 mmHg 41%
    19:00 +29°C° 0 mm 1 mps 747 mmHg 44%
    20:00 +27°C° 0 mm 1 mps 747 mmHg 47%
    21:00 +26°C° 0 mm 1 mps 747 mmHg 50%
    22:00 +25°C° 0 mm 2 mps 747 mmHg 55%
    23:00 +24°C° 0 mm 2 mps 747 mmHg 59%

    23 July, Tuesday

    Time Temperature Precipitation Wind Pressure Humidity
    00:00 +23°C° 0 mm 2 mps 747 mmHg 63%
    01:00 +23°C° 0 mm 2 mps 746 mmHg 65%
    02:00 +23°C° 0 mm 1 mps 746 mmHg 68%
    03:00 +22°C° 0 mm 1 mps 746 mmHg 70%
    04:00 +23°C° 0 mm 1 mps 746 mmHg 70%
    05:00 +23°C° 0 mm 1 mps 746 mmHg 70%
    06:00 +23°C° 0 mm 1 mps 746 mmHg 69%
    07:00 +25°C° 0 mm 1 mps 745 mmHg 62%
    08:00 +27°C° 0 mm 2 mps 745 mmHg 55%
    09:00 +28°C° 0 mm 2 mps 745 mmHg 48%
    10:00 +29°C° 0 mm 3 mps 745 mmHg 45%
    11:00 +30°C° 0 mm 3 mps 745 mmHg 42%
    12:00 +32°C° 0 mm 4 mps 745 mmHg 38%
    13:00 +32°C° 0 mm 4 mps 745 mmHg 38%
    14:00 +31°C° 0 mm 3 mps 745 mmHg 38%
    15:00 +31°C° 0 mm 3 mps 744 mmHg 38%
    16:00 +30°C° 0 mm 3 mps 744 mmHg 42%
    17:00 +29°C° 0 mm 3 mps 744 mmHg 47%
    18:00 +28°C° 0 mm 3 mps 745 mmHg 51%
    19:00 +27°C° 0.1 mm 3 mps 745 mmHg 56%
    20:00 +26°C° 0.1 mm 3 mps 744 mmHg 61%
    21:00 +24°C° 0.1 mm 3 mps 744 mmHg 66%
    22:00 +23°C° 0.4 mm 2 mps 744 mmHg 72%
    23:00 +21°C° 0.4 mm 2 mps 744 mmHg 77%

    24 July, Wednesday

    Time Temperature Precipitation Wind Pressure Humidity
    00:00 +21°C° 0.4 mm 1 mps 744 mmHg 83%
    01:00 +20°C° 0.8 mm 2 mps 744 mmHg 84%
    02:00 +20°C° 0.8 mm 2 mps 744 mmHg 85%
    03:00 +20°C° 0.8 mm 2 mps 744 mmHg 86%
    04:00 +20°C° 1.5 mm 3 mps 744 mmHg 88%
    05:00 +20°C° 1.5 mm 3 mps 743 mmHg 90%
    06:00 +20°C° 1.5 mm 4 mps 743 mmHg 92%
    07:00 +20°C° 1 mm 3 mps 743 mmHg 89%
    08:00 +20°C° 1 mm 3 mps 743 mmHg 86%
    09:00 +20°C° 1 mm 3 mps 744 mmHg 84%
    10:00 +23°C° 0 mm 2 mps 744 mmHg 75%
    11:00 +25°C° 0 mm 1 mps 744 mmHg 66%
    12:00 +25°C° 0 mm 0 mps 744 mmHg 57%
    13:00 +27°C° 0 mm 1 mps 744 mmHg 55%
    14:00 +28°C° 0 mm 1 mps 743 mmHg 52%
    15:00 +28°C° 0 mm 1 mps 743 mmHg 50%
    16:00 +28°C° 0.4 mm 1 mps 743 mmHg 54%
    17:00 +27°C° 0.4 mm 1 mps 743 mmHg 57%
    18:00 +27°C° 0.4 mm 1 mps 743 mmHg 60%
    19:00 +25°C° 1 mm 1 mps 743 mmHg 67%
    20:00 +23°C° 1 mm 1 mps 743 mmHg 73%
    21:00 +21°C° 1 mm 2 mps 744 mmHg 80%
    22:00 +22°C° 0.3 mm 1 mps 744 mmHg 80%
    23:00 +21°C° 0.3 mm 1 mps 743 mmHg 80%

    25 July, Thursday

    Time Temperature Precipitation Wind Pressure Humidity
    00:00 +19°C° 0.3 mm 0 mps 743 mmHg 80%
    01:00 +21°C° 0 mm 1 mps 743 mmHg 81%
    02:00 +21°C° 0 mm 1 mps 743 mmHg 82%
    03:00 +21°C° 0 mm 1 mps 743 mmHg 82%
    04:00 +21°C° 0 mm 1 mps 743 mmHg 83%
    05:00 +21°C° 0 mm 1 mps 743 mmHg 84%
    06:00 +21°C° 0 mm 1 mps 743 mmHg 85%
    07:00 +22°C° 0 mm 1 mps 743 mmHg 80%
    08:00 +23°C° 0 mm 2 mps 743 mmHg 75%
    09:00 +24°C° 0 mm 2 mps 744 mmHg 70%
    10:00 +26°C° 0 mm 2 mps 744 mmHg 63%
    11:00 +27°C° 0 mm 2 mps 744 mmHg 56%
    12:00 +28°C° 0 mm 2 mps 744 mmHg 50%
    13:00 +29°C° 0.1 mm 2 mps 743 mmHg 46%
    14:00 +29°C° 0.1 mm 2 mps 743 mmHg 43%
    15:00 +30°C° 0.1 mm 2 mps 743 mmHg 40%
    16:00 +30°C° 0 mm 2 mps 743 mmHg 42%
    17:00 +29°C° 0 mm 1 mps 743 mmHg 43%
    18:00 +29°C° 0 mm 1 mps 743 mmHg 45%
    19:00 +28°C° 0.1 mm 1 mps 743 mmHg 49%
    20:00 +26°C° 0.1 mm 1 mps 743 mmHg 53%
    21:00 +25°C° 0.1 mm 1 mps 743 mmHg 57%
    22:00 +24°C° 0.4 mm 1 mps 743 mmHg 62%
    23:00 +23°C° 0.4 mm 1 mps 743 mmHg 67%
    Show more